FENGYUN 1C DEB, 38799

Orbit data source: Space-Track

FENGYUN 1C DEB, 38799 is space debris in SSO originally from a launch on Mon, 10 May 1999 UTC launched from the Taiyaun Space Center, China (TSC). Fengyun 1C debris stems from the Chinese weather satellite Fengyun-1C, which was intentionally destroyed by a Chinese anti-satellite missile in 2007. This event dramatically increased the amount of space debris, with thousands of trackable fragments posing hazards to satellites and human spaceflight. The Fengyun 1C debris cloud has become a focal point in discussions about space sustainability and the need for international regulations to prevent the creation of new debris.

Loading next visibility...
Identifier
38799, 1999-025EUP
Orbit
SSO
Country
Flag of CNCN / PRC
Related business
Manufacturer
Unknown
Mission
Spacecraft
Bus & Motor
Unknown
Mass
Unknown
Launch date (UTC)
1999-05-10 (27 years ago)
Launch vehicle
Unknown
Launch site
Taiyaun Space Center, China (TSC)
Object type
Payload
Rocket body
Debris
Shape & HBR
Unknown shape, 0.1 m
Radar Cross Section
Small (<0.1 m²)

Expand to show TLE details & history
Last TLE update: 16 hours ago

TLE from 16 hours ago
0 FENGYUN 1C DEB
1 38799U 99025EUP 26207.98526363  .00003286  00000-0  71827-3 0  9997
2 38799  98.3874 287.6765 0159673  19.9854 340.7500 14.50825803673174
Epoch: 2026-07-26T23:38Z
TLE epoch observation values (Epoch: 2026-07-26T23:38:46.777Z)
Latitude
0.00003°
Longitude
-11.69375°
Altitude
619.053 km
Speed
7.606 km/s
True Right ascension
19h 10m 42s
True Declination
0° 00' 00"
Sunlit
Object was in full shadow at epoch
Visualization orbit readout
Latitude
Unknown
Longitude
Unknown
Altitude
Unknown
Speed
Unknown
Apparent Right ascension
Unknown
Apparent Declination
Unknown
Sunlit
N/A
Visualization observer readout
Local Sidereal Time
05:05:45
Azimuth
Unknown
Elevation
Unknown
Doppler factor
Unknown
Orbital elements
Apogee altitude
833.393 km
Perigee altitude
606.715 km
Semi-major axis
7,098.191 km
Eccentricity
0.01597
Inclination
98.3874°
RAAN
287.6765°
Arg. of periapsis
19.9854°
True anomaly
340.13519°
Mean anomaly
340.75°
Eccentric anomaly
340.44377°
Mean motion
3.62929 °/min
Orbital period
99.19 mins
BSTAR
0.00071827
Loading maneuver chart data...
Computing Atmospheric mass density...

Documentation

Showing up to 5 results
|